Time,TemperatureF,DewpointF,PressureIn,WindDirection,WindDirectionDegrees,WindSpeedMPH,WindSpeedGustMPH,Humidity,HourlyPrecipIn,Conditions,Clouds,dailyrainin,SoftwareType,DateUTC
2014-07-25 00:03:00,68.6,65.2,29.95,SW,236,0.0,3.0,89,0.00,,,0.00,VWS V14.01,2014-07-25 05:03:00,
2014-07-25 00:13:00,68.4,65.4,29.95,SW,236,0.0,3.0,90,0.00,,,0.00,VWS V14.01,2014-07-25 05:13:00,
2014-07-25 00:18:00,68.4,65.4,29.95,SW,236,0.0,3.0,90,0.00,,,0.00,VWS V14.01,2014-07-25 05:18:00,
2014-07-25 00:23:00,68.3,65.3,29.95,SW,236,0.0,3.0,90,0.00,,,0.00,VWS V14.01,2014-07-25 05:23:00,
2014-07-25 00:28:00,68.5,65.5,29.95,SW,236,0.0,3.0,90,0.00,,,0.00,VWS V14.01,2014-07-25 05:28:00,
2014-07-25 00:33:00,68.9,65.8,29.95,SW,236,0.0,3.0,90,0.00,,,0.00,VWS V14.01,2014-07-25 05:33:00,
2014-07-25 00:38:00,69.4,66.0,29.95,SW,236,0.0,3.0,89,0.00,,,0.00,VWS V14.01,2014-07-25 05:38:00,
2014-07-25 00:43:00,69.6,65.9,29.95,SW,234,0.0,3.0,88,0.00,,,0.00,VWS V14.01,2014-07-25 05:43:00,
2014-07-25 00:48:00,69.6,65.9,29.95,SW,235,0.0,3.0,88,0.00,,,0.00,VWS V14.01,2014-07-25 05:48:00,
2014-07-25 00:53:00,69.7,66.3,29.95,SSE,149,0.0,3.0,89,0.00,,,0.00,VWS V14.01,2014-07-25 05:53:00,
2014-07-25 01:03:00,69.7,66.0,29.95,SSE,149,0.0,3.0,88,0.00,,,0.00,VWS V14.01,2014-07-25 06:03:00,
2014-07-25 01:08:00,69.7,66.3,29.95,SSE,149,0.0,3.0,89,0.00,,,0.00,VWS V14.01,2014-07-25 06:08:00,
2014-07-25 01:13:00,69.5,66.1,29.95,SSE,149,0.0,3.0,89,0.00,,,0.00,VWS V14.01,2014-07-25 06:13:00,
2014-07-25 01:18:00,69.3,65.9,29.95,SSE,149,0.0,3.0,89,0.00,,,0.00,VWS V14.01,2014-07-25 06:18:00,
2014-07-25 01:23:00,69.0,65.9,29.95,SSE,149,0.0,3.0,90,0.00,,,0.00,VWS V14.01,2014-07-25 06:23:00,
2014-07-25 01:28:00,68.7,66.0,29.95,SSE,149,0.0,3.0,91,0.00,,,0.00,VWS V14.01,2014-07-25 06:28:00,
2014-07-25 01:33:00,68.4,65.7,29.94,SSE,149,0.0,3.0,91,0.00,,,0.00,VWS V14.01,2014-07-25 06:33:00,
2014-07-25 01:38:00,68.2,65.8,29.94,SSE,149,0.0,3.0,92,0.00,,,0.00,VWS V14.01,2014-07-25 06:38:00,
2014-07-25 01:43:00,68.0,65.9,29.94,SSE,149,0.0,3.0,93,0.00,,,0.00,VWS V14.01,2014-07-25 06:43:00,
2014-07-25 01:53:00,68.0,66.2,29.93,SSE,149,0.0,3.0,94,0.00,,,0.00,VWS V14.01,2014-07-25 06:53:00,
2014-07-25 01:58:00,68.3,66.5,29.93,SSE,149,0.0,3.0,94,0.00,,,0.00,VWS V14.01,2014-07-25 06:58:00,
2014-07-25 02:03:00,68.4,66.6,29.93,SSE,149,0.0,3.0,94,0.00,,,0.00,VWS V14.01,2014-07-25 07:03:00,
2014-07-25 02:08:00,68.5,66.7,29.93,SSE,149,0.0,3.0,94,0.00,,,0.00,VWS V14.01,2014-07-25 07:08:00,
2014-07-25 02:18:00,68.8,67.3,29.92,SSE,163,0.0,3.0,95,0.00,,,0.00,VWS V14.01,2014-07-25 07:18:00,
2014-07-25 02:23:00,68.9,67.1,29.92,SSE,163,0.0,3.0,94,0.00,,,0.00,VWS V14.01,2014-07-25 07:23:00,
2014-07-25 02:28:00,69.0,67.2,29.92,SSE,163,0.0,3.0,94,0.00,,,0.00,VWS V14.01,2014-07-25 07:28:00,
2014-07-25 02:38:00,68.5,66.4,29.93,SSE,163,0.0,3.0,93,0.00,,,0.00,VWS V14.01,2014-07-25 07:38:00,
2014-07-25 02:43:00,68.3,66.2,29.93,SSE,163,0.0,3.0,93,0.00,,,0.00,VWS V14.01,2014-07-25 07:43:00,
2014-07-25 02:53:00,67.7,65.9,29.94,SSE,163,0.0,3.0,94,0.00,,,0.00,VWS V14.01,2014-07-25 07:53:00,
2014-07-25 02:58:00,67.5,65.7,29.94,SSE,163,0.0,3.0,94,0.00,,,0.00,VWS V14.01,2014-07-25 07:58:00,
2014-07-25 03:03:00,67.4,65.9,29.93,SSE,163,0.0,3.0,95,0.00,,,0.00,VWS V14.01,2014-07-25 08:03:00,
2014-07-25 03:13:00,67.4,65.9,29.93,SSE,163,0.0,3.0,95,0.00,,,0.00,VWS V14.01,2014-07-25 08:13:00,
2014-07-25 03:18:00,67.3,66.1,29.93,SSE,163,0.0,3.0,96,0.00,,,0.00,VWS V14.01,2014-07-25 08:18:00,
2014-07-25 03:23:00,67.2,66.0,29.93,SSE,163,0.0,3.0,96,0.00,,,0.00,VWS V14.01,2014-07-25 08:23:00,
2014-07-25 03:28:00,67.3,66.1,29.93,SSE,163,0.0,3.0,96,0.00,,,0.00,VWS V14.01,2014-07-25 08:28:00,
2014-07-25 03:33:00,67.3,66.1,29.92,SSE,163,0.0,3.0,96,0.00,,,0.00,VWS V14.01,2014-07-25 08:33:00,
2014-07-25 03:38:00,67.3,66.1,29.92,SSE,163,0.0,3.0,96,0.00,,,0.00,VWS V14.01,2014-07-25 08:38:00,
2014-07-25 03:48:00,67.4,66.2,29.92,SSE,163,0.0,3.0,96,0.00,,,0.00,VWS V14.01,2014-07-25 08:48:00,
2014-07-25 03:53:00,67.6,66.7,29.92,SSE,163,0.0,3.0,97,0.00,,,0.00,VWS V14.01,2014-07-25 08:53:00,
2014-07-25 03:58:00,67.7,66.8,29.92,SSE,163,0.0,3.0,97,0.00,,,0.00,VWS V14.01,2014-07-25 08:58:00,
2014-07-25 04:03:00,67.6,66.4,29.92,SSE,163,0.0,3.0,96,0.00,,,0.00,VWS V14.01,2014-07-25 09:03:00,
2014-07-25 04:13:00,67.3,66.1,29.92,SSE,163,0.0,3.0,96,0.00,,,0.00,VWS V14.01,2014-07-25 09:13:00,
2014-07-25 04:18:00,67.5,66.6,29.92,SSE,163,0.0,3.0,97,0.00,,,0.00,VWS V14.01,2014-07-25 09:18:00,
2014-07-25 04:23:00,67.8,66.9,29.92,SSE,163,0.0,3.0,97,0.00,,,0.00,VWS V14.01,2014-07-25 09:23:00,
2014-07-25 04:28:00,68.0,67.1,29.92,SSE,163,0.0,3.0,97,0.00,,,0.00,VWS V14.01,2014-07-25 09:28:00,
2014-07-25 04:33:00,68.1,67.2,29.91,SSE,163,0.0,3.0,97,0.00,,,0.00,VWS V14.01,2014-07-25 09:33:00,
2014-07-25 04:38:00,68.2,67.3,29.91,SSE,163,0.0,3.0,97,0.00,,,0.00,VWS V14.01,2014-07-25 09:38:00,
2014-07-25 04:48:00,68.3,67.4,29.91,SSE,163,0.0,3.0,97,0.00,,,0.00,VWS V14.01,2014-07-25 09:48:00,
2014-07-25 04:53:00,68.3,67.1,29.91,SSE,163,0.0,3.0,96,0.00,,,0.00,VWS V14.01,2014-07-25 09:53:00,
2014-07-25 05:03:00,68.2,67.0,29.91,SSE,163,0.0,3.0,96,0.00,,,0.00,VWS V14.01,2014-07-25 10:03:00,
2014-07-25 05:13:00,68.1,66.9,29.91,SSE,163,0.0,3.0,96,0.00,,,0.00,VWS V14.01,2014-07-25 10:13:00,
2014-07-25 05:18:00,68.3,67.4,29.91,SSE,163,0.0,3.0,97,0.00,,,0.00,VWS V14.01,2014-07-25 10:18:00,
2014-07-25 05:23:00,68.3,67.4,29.91,SSE,163,0.0,3.0,97,0.00,,,0.00,VWS V14.01,2014-07-25 10:23:00,
2014-07-25 05:28:00,68.5,67.6,29.91,SSE,163,0.0,3.0,97,0.00,,,0.00,VWS V14.01,2014-07-25 10:28:00,
2014-07-25 05:33:00,68.8,67.6,29.90,SSE,163,2.0,3.0,96,0.00,,,0.00,VWS V14.01,2014-07-25 10:33:00,
2014-07-25 05:38:00,68.9,67.7,29.90,South,172,0.0,3.0,96,0.00,,,0.00,VWS V14.01,2014-07-25 10:38:00,
2014-07-25 05:43:00,69.1,67.9,29.90,South,172,0.0,3.0,96,0.00,,,0.00,VWS V14.01,2014-07-25 10:43:00,
2014-07-25 05:48:00,69.2,68.0,29.91,South,169,0.0,3.0,96,0.00,,,0.00,VWS V14.01,2014-07-25 10:48:00,
2014-07-25 07:08:00,69.2,67.7,29.93,SSW,212,0.0,3.0,95,0.00,,,0.00,VWS V14.01,2014-07-25 12:08:00,
2014-07-25 07:13:00,69.3,67.8,29.93,SSW,212,0.0,3.0,95,0.00,,,0.00,VWS V14.01,2014-07-25 12:13:00,
2014-07-25 07:23:00,69.5,68.0,29.94,SSW,211,0.0,3.0,95,0.00,,,0.00,VWS V14.01,2014-07-25 12:23:00,
2014-07-25 07:33:00,69.7,68.2,29.94,WNW,284,0.0,3.0,95,0.00,,,0.00,VWS V14.01,2014-07-25 12:33:00,
2014-07-25 07:38:00,69.9,68.4,29.94,WNW,284,0.0,3.0,95,0.00,,,0.00,VWS V14.01,2014-07-25 12:38:00,
2014-07-25 07:43:00,70.1,68.6,29.94,WNW,283,0.0,3.0,95,0.00,,,0.00,VWS V14.01,2014-07-25 12:43:00,
2014-07-25 07:48:00,70.4,68.9,29.94,WNW,283,0.0,3.0,95,0.00,,,0.00,VWS V14.01,2014-07-25 12:48:00,
2014-07-25 07:58:00,71.4,69.6,29.94,SW,236,0.0,3.0,94,0.00,,,0.00,VWS V14.01,2014-07-25 12:58:00,
2014-07-25 08:03:00,71.8,69.7,29.95,SW,236,0.0,3.0,93,0.00,,,0.00,VWS V14.01,2014-07-25 13:03:00,
2014-07-25 08:08:00,72.1,70.0,29.95,SW,236,0.0,3.0,93,0.00,,,0.00,VWS V14.01,2014-07-25 13:08:00,
2014-07-25 08:13:00,72.4,70.3,29.95,SSE,155,0.0,3.0,93,0.00,,,0.00,VWS V14.01,2014-07-25 13:13:00,
2014-07-25 08:18:00,72.8,70.7,29.96,SSE,155,0.0,3.0,93,0.00,,,0.00,VWS V14.01,2014-07-25 13:18:00,
2014-07-25 08:28:00,73.6,70.8,29.96,SSW,212,1.0,3.0,91,0.00,,,0.00,VWS V14.01,2014-07-25 13:28:00,
2014-07-25 08:33:00,73.8,71.0,29.96,SSW,200,0.0,3.0,91,0.00,,,0.00,VWS V14.01,2014-07-25 13:33:00,
2014-07-25 08:38:00,74.0,70.9,29.96,South,173,1.0,3.0,90,0.00,,,0.00,VWS V14.01,2014-07-25 13:38:00,
2014-07-25 08:43:00,74.2,71.4,29.96,South,175,0.0,3.0,91,0.00,,,0.00,VWS V14.01,2014-07-25 13:43:00,
2014-07-25 08:48:00,74.4,71.3,29.96,South,175,2.0,3.0,90,0.00,,,0.00,VWS V14.01,2014-07-25 13:48:00,
2014-07-25 08:53:00,74.4,70.9,29.96,South,175,1.0,3.0,89,0.00,,,0.00,VWS V14.01,2014-07-25 13:53:00,
2014-07-25 08:58:00,74.4,70.9,29.96,South,175,3.0,3.0,89,0.00,,,0.00,VWS V14.01,2014-07-25 13:58:00,
2014-07-25 09:08:00,74.8,71.0,29.96,SSE,159,0.0,3.0,88,0.00,,,0.00,VWS V14.01,2014-07-25 14:08:00,
2014-07-25 09:18:00,74.8,71.0,29.96,SSE,159,0.0,3.0,88,0.00,,,0.00,VWS V14.01,2014-07-25 14:18:00,
2014-07-25 09:23:00,75.3,71.5,29.96,South,189,0.0,3.0,88,0.00,,,0.00,VWS V14.01,2014-07-25 14:23:00,
2014-07-25 09:33:00,76.0,71.2,29.95,SSE,167,2.0,3.0,85,0.00,,,0.00,VWS V14.01,2014-07-25 14:33:00,
2014-07-25 09:43:00,76.5,72.3,29.95,SE,138,0.0,3.0,87,0.00,,,0.00,VWS V14.01,2014-07-25 14:43:00,
2014-07-25 09:48:00,77.3,72.1,29.94,SE,130,0.0,3.0,84,0.00,,,0.00,VWS V14.01,2014-07-25 14:48:00,
2014-07-25 09:53:00,77.5,71.6,29.94,NNW,332,0.0,3.0,82,0.00,,,0.00,VWS V14.01,2014-07-25 14:53:00,
2014-07-25 09:58:00,77.2,72.0,29.94,NW,306,0.0,3.0,84,0.00,,,0.00,VWS V14.01,2014-07-25 14:58:00,
2014-07-25 10:03:00,77.1,71.5,29.94,SSE,164,0.0,3.0,83,0.00,,,0.00,VWS V14.01,2014-07-25 15:03:00,
2014-07-25 10:08:00,76.8,71.6,29.94,SSE,159,0.0,3.0,84,0.00,,,0.00,VWS V14.01,2014-07-25 15:08:00,
2014-07-25 10:13:00,76.9,71.0,29.94,SSE,148,1.0,3.0,82,0.00,,,0.00,VWS V14.01,2014-07-25 15:13:00,
2014-07-25 10:23:00,77.1,71.5,29.95,SSE,164,1.0,3.0,83,0.00,,,0.00,VWS V14.01,2014-07-25 15:23:00,
2014-07-25 10:28:00,77.5,71.6,29.95,SSW,202,1.0,3.0,82,0.00,,,0.00,VWS V14.01,2014-07-25 15:28:00,
2014-07-25 10:33:00,77.9,72.0,29.94,SSW,200,1.0,3.0,82,0.00,,,0.00,VWS V14.01,2014-07-25 15:33:00,
2014-07-25 10:38:00,78.6,71.9,29.94,South,169,0.0,3.0,80,0.00,,,0.00,VWS V14.01,2014-07-25 15:38:00,
2014-07-25 10:43:00,78.5,71.4,29.94,SSE,165,0.0,3.0,79,0.00,,,0.00,VWS V14.01,2014-07-25 15:43:00,
2014-07-25 10:48:00,78.2,71.5,29.94,SW,234,1.0,3.0,80,0.00,,,0.00,VWS V14.01,2014-07-25 15:48:00,
2014-07-25 10:53:00,79.0,71.6,29.94,SE,146,4.0,4.0,78,0.00,,,0.00,VWS V14.01,2014-07-25 15:53:00,
2014-07-25 10:58:00,79.4,71.2,29.94,ESE,117,3.0,3.0,76,0.00,,,0.00,VWS V14.01,2014-07-25 15:58:00,
2014-07-25 11:08:00,80.2,71.9,29.93,SSW,197,1.0,3.0,76,0.00,,,0.00,VWS V14.01,2014-07-25 16:08:00,
2014-07-25 11:18:00,79.5,71.3,29.93,SSE,163,0.0,3.0,76,0.00,,,0.00,VWS V14.01,2014-07-25 16:18:00,
2014-07-25 11:23:00,79.7,71.1,29.93,South,173,0.0,3.0,75,0.00,,,0.00,VWS V14.01,2014-07-25 16:23:00,
2014-07-25 11:28:00,80.2,71.9,29.93,South,187,0.0,3.0,76,0.00,,,0.00,VWS V14.01,2014-07-25 16:28:00,
2014-07-25 11:33:00,80.1,70.7,29.93,SSE,165,3.0,3.0,73,0.00,,,0.00,VWS V14.01,2014-07-25 16:33:00,
2014-07-25 11:38:00,80.4,71.8,29.93,NW,326,3.0,3.0,75,0.00,,,0.00,VWS V14.01,2014-07-25 16:38:00,
2014-07-25 11:43:00,80.6,71.2,29.93,ESE,123,1.0,3.0,73,0.00,,,0.00,VWS V14.01,2014-07-25 16:43:00,
2014-07-25 11:48:00,80.7,71.7,29.92,SSW,210,1.0,3.0,74,0.00,,,0.00,VWS V14.01,2014-07-25 16:48:00,
2014-07-25 11:53:00,80.9,72.2,29.92,SE,129,1.0,3.0,75,0.00,,,0.00,VWS V14.01,2014-07-25 16:53:00,
2014-07-25 11:58:00,81.4,71.1,29.92,SSE,154,1.0,3.0,71,0.00,,,0.00,VWS V14.01,2014-07-25 16:58:00,
2014-07-25 12:03:00,81.9,71.6,29.92,WNW,296,11.0,11.0,71,0.00,,,0.00,VWS V14.01,2014-07-25 17:03:00,
2014-07-25 12:13:00,82.6,72.2,29.92,SSE,155,1.0,3.0,71,0.00,,,0.00,VWS V14.01,2014-07-25 17:13:00,
2014-07-25 12:18:00,82.6,71.0,29.91,SE,142,0.0,3.0,68,0.00,,,0.00,VWS V14.01,2014-07-25 17:18:00,
2014-07-25 12:23:00,82.5,71.3,29.91,SSE,168,3.0,3.0,69,0.00,,,0.00,VWS V14.01,2014-07-25 17:23:00,
2014-07-25 12:33:00,82.7,71.9,29.91,West,260,3.0,3.0,70,0.00,,,0.00,VWS V14.01,2014-07-25 17:33:00,
2014-07-25 12:38:00,83.1,71.9,29.91,SW,215,5.0,5.0,69,0.00,,,0.00,VWS V14.01,2014-07-25 17:38:00,
2014-07-25 12:48:00,83.4,72.2,29.90,ESE,109,2.0,3.0,69,0.00,,,0.00,VWS V14.01,2014-07-25 17:48:00,
2014-07-25 12:53:00,83.7,72.5,29.90,SSW,210,2.0,3.0,69,0.00,,,0.00,VWS V14.01,2014-07-25 17:53:00,
2014-07-25 12:58:00,84.3,73.0,29.90,SE,142,1.0,3.0,69,0.00,,,0.00,VWS V14.01,2014-07-25 17:58:00,
2014-07-25 13:03:00,84.9,72.7,29.90,South,169,2.0,3.0,67,0.00,,,0.00,VWS V14.01,2014-07-25 18:03:00,
2014-07-25 13:08:00,85.1,71.6,29.90,WNW,298,0.0,3.0,64,0.00,,,0.00,VWS V14.01,2014-07-25 18:08:00,
2014-07-25 13:18:00,85.6,71.1,29.90,ESE,123,1.0,3.0,62,0.00,,,0.00,VWS V14.01,2014-07-25 18:18:00,
2014-07-25 13:23:00,85.6,71.1,29.90,South,175,0.0,3.0,62,0.00,,,0.00,VWS V14.01,2014-07-25 18:23:00,
2014-07-25 13:33:00,85.9,71.8,29.89,South,190,1.0,3.0,63,0.00,,,0.00,VWS V14.01,2014-07-25 18:33:00,
2014-07-25 13:43:00,85.8,71.8,29.89,NNE,18,0.0,3.0,63,0.00,,,0.00,VWS V14.01,2014-07-25 18:43:00,
2014-07-25 13:48:00,86.1,71.6,29.89,SSE,159,0.0,3.0,62,0.00,,,0.00,VWS V14.01,2014-07-25 18:48:00,
2014-07-25 13:53:00,86.0,71.0,29.89,East,101,5.0,5.0,61,0.00,,,0.00,VWS V14.01,2014-07-25 18:53:00,
2014-07-25 13:58:00,86.0,71.5,29.89,SE,138,4.0,4.0,62,0.00,,,0.00,VWS V14.01,2014-07-25 18:58:00,
2014-07-25 14:03:00,86.3,70.8,29.89,SE,144,3.0,3.0,60,0.00,,,0.00,VWS V14.01,2014-07-25 19:03:00,
2014-07-25 14:08:00,86.9,72.3,29.89,ESE,102,1.0,3.0,62,0.00,,,0.00,VWS V14.01,2014-07-25 19:08:00,
2014-07-25 14:13:00,87.3,71.2,29.89,SSE,148,0.0,3.0,59,0.00,,,0.00,VWS V14.01,2014-07-25 19:13:00,
2014-07-25 14:23:00,87.3,72.7,29.88,ESE,117,4.0,4.0,62,0.00,,,0.00,VWS V14.01,2014-07-25 19:23:00,
2014-07-25 14:28:00,87.0,71.4,29.88,WSW,240,3.0,3.0,60,0.00,,,0.00,VWS V14.01,2014-07-25 19:28:00,
2014-07-25 14:33:00,87.3,72.2,29.87,South,169,1.0,3.0,61,0.00,,,0.00,VWS V14.01,2014-07-25 19:33:00,
2014-07-25 14:43:00,88.1,73.0,29.87,SE,133,5.0,5.0,61,0.00,,,0.00,VWS V14.01,2014-07-25 19:43:00,
2014-07-25 14:48:00,87.9,71.8,29.87,ESE,122,0.0,3.0,59,0.00,,,0.00,VWS V14.01,2014-07-25 19:48:00,
2014-07-25 14:58:00,87.9,73.3,29.87,SSW,211,1.0,3.0,62,0.00,,,0.00,VWS V14.01,2014-07-25 19:58:00,
2014-07-25 15:03:00,87.9,72.3,29.87,SSE,161,0.0,3.0,60,0.00,,,0.00,VWS V14.01,2014-07-25 20:03:00,
2014-07-25 15:08:00,88.3,72.7,29.87,South,169,5.0,5.0,60,0.00,,,0.00,VWS V14.01,2014-07-25 20:08:00,
2014-07-25 15:13:00,88.4,72.3,29.87,South,171,0.0,3.0,59,0.00,,,0.00,VWS V14.01,2014-07-25 20:13:00,
2014-07-25 15:18:00,88.4,72.3,29.87,South,190,2.0,3.0,59,0.00,,,0.00,VWS V14.01,2014-07-25 20:18:00,
2014-07-25 15:28:00,88.5,73.3,29.87,SSE,156,1.0,3.0,61,0.00,,,0.00,VWS V14.01,2014-07-25 20:28:00,
2014-07-25 15:33:00,88.7,72.0,29.86,SE,146,1.0,3.0,58,0.00,,,0.00,VWS V14.01,2014-07-25 20:33:00,
2014-07-25 15:38:00,88.8,73.1,29.86,SE,142,1.0,3.0,60,0.00,,,0.00,VWS V14.01,2014-07-25 20:38:00,
2014-07-25 15:48:00,89.0,71.8,29.86,West,265,0.0,3.0,57,0.00,,,0.00,VWS V14.01,2014-07-25 20:48:00,
2014-07-25 15:53:00,88.8,71.6,29.86,SSW,203,1.0,3.0,57,0.00,,,0.00,VWS V14.01,2014-07-25 20:53:00,
2014-07-25 15:58:00,89.0,72.3,29.86,South,178,0.0,3.0,58,0.00,,,0.00,VWS V14.01,2014-07-25 20:58:00,
2014-07-25 16:03:00,89.1,73.4,29.86,SSW,194,0.0,3.0,60,0.00,,,0.00,VWS V14.01,2014-07-25 21:03:00,
2014-07-25 16:08:00,89.3,72.6,29.86,South,172,4.0,4.0,58,0.00,,,0.00,VWS V14.01,2014-07-25 21:08:00,
2014-07-25 16:13:00,89.1,72.9,29.86,SSE,159,4.0,4.0,59,0.00,,,0.00,VWS V14.01,2014-07-25 21:13:00,
2014-07-25 16:18:00,88.4,72.3,29.86,SE,124,0.0,3.0,59,0.00,,,0.00,VWS V14.01,2014-07-25 21:18:00,
2014-07-25 16:23:00,88.9,73.7,29.86,SE,125,0.0,3.0,61,0.00,,,0.00,VWS V14.01,2014-07-25 21:23:00,
2014-07-25 16:28:00,89.3,73.6,29.86,NNW,344,0.0,3.0,60,0.00,,,0.00,VWS V14.01,2014-07-25 21:28:00,
2014-07-25 16:33:00,89.6,73.9,29.85,South,179,0.0,3.0,60,0.00,,,0.00,VWS V14.01,2014-07-25 21:33:00,
2014-07-25 16:43:00,89.1,72.4,29.85,SE,142,0.0,3.0,58,0.00,,,0.00,VWS V14.01,2014-07-25 21:43:00,
2014-07-25 16:53:00,89.0,72.8,29.85,South,184,1.0,3.0,59,0.00,,,0.00,VWS V14.01,2014-07-25 21:53:00,
2014-07-25 16:58:00,88.6,70.9,29.85,SSE,157,4.0,4.0,56,0.00,,,0.00,VWS V14.01,2014-07-25 21:58:00,
2014-07-25 17:03:00,88.5,71.3,29.85,ESE,111,6.0,6.0,57,0.00,,,0.00,VWS V14.01,2014-07-25 22:03:00,
2014-07-25 17:08:00,88.3,71.7,29.85,SSE,163,7.0,7.0,58,0.00,,,0.00,VWS V14.01,2014-07-25 22:08:00,
2014-07-25 17:13:00,88.2,72.1,29.85,ENE,57,0.0,3.0,59,0.00,,,0.00,VWS V14.01,2014-07-25 22:13:00,
2014-07-25 17:18:00,88.3,71.2,29.85,SSE,152,2.0,3.0,57,0.00,,,0.00,VWS V14.01,2014-07-25 22:18:00,
2014-07-25 17:28:00,88.4,72.3,29.85,South,186,0.0,3.0,59,0.00,,,0.00,VWS V14.01,2014-07-25 22:28:00,
2014-07-25 17:38:00,88.3,71.7,29.85,South,176,1.0,3.0,58,0.00,,,0.00,VWS V14.01,2014-07-25 22:38:00,
2014-07-25 17:43:00,88.0,71.9,29.85,SE,144,0.0,3.0,59,0.00,,,0.00,VWS V14.01,2014-07-25 22:43:00,
2014-07-25 17:48:00,88.0,71.9,29.85,SE,144,0.0,3.0,59,0.00,,,0.00,VWS V14.01,2014-07-25 22:48:00,
2014-07-25 17:58:00,88.1,72.0,29.85,SSE,157,3.0,3.0,59,0.00,,,0.00,VWS V14.01,2014-07-25 22:58:00,
2014-07-25 18:03:00,88.0,72.4,29.85,SSE,161,0.0,3.0,60,0.00,,,0.00,VWS V14.01,2014-07-25 23:03:00,
2014-07-25 18:08:00,87.8,71.7,29.85,SSW,199,6.0,6.0,59,0.00,,,0.00,VWS V14.01,2014-07-25 23:08:00,
2014-07-25 18:13:00,87.4,71.3,29.85,South,188,0.0,3.0,59,0.00,,,0.00,VWS V14.01,2014-07-25 23:13:00,
2014-07-25 18:18:00,87.3,71.7,29.85,South,180,1.0,3.0,60,0.00,,,0.00,VWS V14.01,2014-07-25 23:18:00,
2014-07-25 18:23:00,87.3,71.7,29.85,SSE,151,1.0,3.0,60,0.00,,,0.00,VWS V14.01,2014-07-25 23:23:00,
2014-07-25 18:28:00,87.1,72.0,29.85,SSE,164,0.0,3.0,61,0.00,,,0.00,VWS V14.01,2014-07-25 23:28:00,
2014-07-25 18:33:00,87.0,71.9,29.84,West,274,0.0,3.0,61,0.00,,,0.00,VWS V14.01,2014-07-25 23:33:00,
2014-07-25 18:38:00,86.6,71.6,29.84,SSE,168,1.0,3.0,61,0.00,,,0.00,VWS V14.01,2014-07-25 23:38:00,
2014-07-25 18:43:00,86.3,70.8,29.84,South,175,3.0,3.0,60,0.00,,,0.00,VWS V14.01,2014-07-25 23:43:00,
2014-07-25 18:48:00,86.0,71.5,29.84,SSE,159,0.0,3.0,62,0.00,,,0.00,VWS V14.01,2014-07-25 23:48:00,
2014-07-25 18:58:00,85.5,71.5,29.84,South,183,0.0,3.0,63,0.00,,,0.00,VWS V14.01,2014-07-25 23:58:00,
2014-07-25 19:03:00,85.4,70.9,29.84,NW,309,0.0,3.0,62,0.00,,,0.00,VWS V14.01,2014-07-26 00:03:00,
2014-07-25 19:13:00,85.3,70.8,29.84,SSE,152,0.0,3.0,62,0.00,,,0.00,VWS V14.01,2014-07-26 00:13:00,
2014-07-25 19:18:00,85.2,70.7,29.84,SSE,150,1.0,3.0,62,0.00,,,0.00,VWS V14.01,2014-07-26 00:18:00,
2014-07-25 19:23:00,85.0,70.5,29.84,WSW,243,2.0,3.0,62,0.00,,,0.00,VWS V14.01,2014-07-26 00:23:00,
2014-07-25 19:28:00,84.8,70.3,29.84,South,183,1.0,3.0,62,0.00,,,0.00,VWS V14.01,2014-07-26 00:28:00,
2014-07-25 19:33:00,84.7,70.7,29.84,SSE,153,0.0,3.0,63,0.00,,,0.00,VWS V14.01,2014-07-26 00:33:00,
2014-07-25 19:38:00,84.4,71.4,29.84,SSE,155,0.0,3.0,65,0.00,,,0.00,VWS V14.01,2014-07-26 00:38:00,
2014-07-25 19:43:00,84.1,71.5,29.84,South,182,1.0,3.0,66,0.00,,,0.00,VWS V14.01,2014-07-26 00:43:00,
2014-07-25 19:48:00,84.0,71.9,29.83,South,184,1.0,3.0,67,0.00,,,0.00,VWS V14.01,2014-07-26 00:48:00,
2014-07-25 19:53:00,83.8,72.1,29.83,SSW,200,1.0,3.0,68,0.00,,,0.00,VWS V14.01,2014-07-26 00:53:00,
2014-07-25 20:03:00,83.5,71.8,29.84,ENE,67,2.0,3.0,68,0.00,,,0.00,VWS V14.01,2014-07-26 01:03:00,
2014-07-25 20:08:00,83.2,72.0,29.84,SSE,168,0.0,3.0,69,0.00,,,0.00,VWS V14.01,2014-07-26 01:08:00,
2014-07-25 20:13:00,82.8,71.6,29.84,SE,141,1.0,3.0,69,0.00,,,0.00,VWS V14.01,2014-07-26 01:13:00,
2014-07-25 20:18:00,82.5,71.3,29.83,SW,215,2.0,3.0,69,0.00,,,0.00,VWS V14.01,2014-07-26 01:18:00,
2014-07-25 20:23:00,82.3,71.1,29.83,South,169,2.0,3.0,69,0.00,,,0.00,VWS V14.01,2014-07-26 01:23:00,
2014-07-25 20:28:00,82.1,70.9,29.83,South,169,0.0,3.0,69,0.00,,,0.00,VWS V14.01,2014-07-26 01:28:00,
2014-07-25 20:33:00,81.8,70.6,29.83,SSE,162,0.0,3.0,69,0.00,,,0.00,VWS V14.01,2014-07-26 01:33:00,
2014-07-25 20:38:00,81.6,70.9,29.83,South,169,1.0,3.0,70,0.00,,,0.00,VWS V14.01,2014-07-26 01:38:00,
2014-07-25 20:48:00,81.4,70.7,29.83,South,188,0.0,3.0,70,0.00,,,0.00,VWS V14.01,2014-07-26 01:48:00,
2014-07-25 20:53:00,81.2,70.9,29.83,South,176,0.0,3.0,71,0.00,,,0.00,VWS V14.01,2014-07-26 01:53:00,
2014-07-25 20:58:00,80.9,71.0,29.83,South,177,0.0,3.0,72,0.00,,,0.00,VWS V14.01,2014-07-26 01:58:00,
2014-07-25 21:08:00,80.4,71.4,29.83,South,176,2.0,3.0,74,0.00,,,0.00,VWS V14.01,2014-07-26 02:08:00,
2014-07-25 21:18:00,80.2,71.6,29.83,South,179,0.0,3.0,75,0.00,,,0.00,VWS V14.01,2014-07-26 02:18:00,
2014-07-25 21:23:00,79.9,71.7,29.83,South,179,1.0,3.0,76,0.00,,,0.00,VWS V14.01,2014-07-26 02:23:00,